Altoona, PA

7:47 AM EDT on August 24, 2019 (GMT -0400)
Altoona-Blair County

Weather History for KAOO - May, 2019

Change the Weather History Date:

Wednesday, May 22, 2019

  Actual Average Record
Temperature  
Mean Temperature 57 °F 60 °F  
Max Temperature 70 °F 71 °F 88 °F (2013)
Min Temperature 44 °F 49 °F 31 °F (2002)
Degree Days  
Heating Degree Days 8 6  
Month to date heating degree days 116 194  
Since 1 July heating degree days 5670 6112  
Cooling Degree Days 0 1  
Month to date cooling degree days 22 12  
Year to date cooling degree days 22 18  
Growing Degree Days 7 (Base 50)    
Moisture  
Dew Point 44 °F    
Average Humidity 67    
Maximum Humidity 93    
Minimum Humidity 40    
Precipitation  
Precipitation 0.00 in 0.13 in 1.49 in (1983)
Month to date precipitation 4.19 2.62  
Year to date precipitation 17.00 13.09  
Sea Level Pressure  
Sea Level Pressure 30.23 in    
Wind  
Wind Speed 6 mph (SSE)    
Max Wind Speed 15 mph    
Max Gust Speed 20 mph    
Visibility 10 miles    
Events      
T = Trace of Precipitation, MM = Missing Value Source: NWS Daily Summary

Daily Weather History Graph

Daily Weather History Graph

Search for Another Location

Airport or City:

Astronomy

May. 22, 2019 Rise Set
Actual Time 5:51 AM EDT 8:28 PM EDT
Civil Twilight 5:20 AM EDT 9:00 PM EDT
Nautical Twilight 4:40 AM EDT 9:39 PM EDT
Astronomical Twilight 3:56 AM EDT 10:24 PM EDT
Moon No Moon Rise 8:57 AM EDT (5/22)
Length of Visible Light 15h 40m
Length of Day
14h 37m
Waning Gibbous, 85% of the Moon is Illuminated
May 22
Waning Gibbous
May 26
Last Quarter
Jun 3
New
Jun 10
First Quarter
Jun 17
Full

Hourly Weather History & Observations

Time (EDT) Temp. Dew Point Humidity Pressure Visibility Wind Dir Wind Speed Gust Speed Precip Events Conditions
12:53 AM 50.0 °F 43.0 °F 77% 30.19 in 10.0 mi Calm Calm - N/A   Clear
1:53 AM 48.0 °F 43.0 °F 83% 30.21 in 10.0 mi Calm Calm - N/A   Clear
2:53 AM 46.9 °F 43.0 °F 86% 30.21 in 10.0 mi Calm Calm - N/A   Clear
3:53 AM 46.0 °F 42.1 °F 86% 30.22 in 10.0 mi Calm Calm - N/A   Clear
4:53 AM 45.0 °F 42.1 °F 90% 30.22 in 10.0 mi Calm Calm - N/A   Clear
5:53 AM 45.0 °F 41.0 °F 86% 30.24 in 10.0 mi Calm Calm - N/A   Clear
6:53 AM 46.0 °F 44.1 °F 93% 30.27 in 10.0 mi Calm Calm - N/A   Clear
7:53 AM 50.0 °F 44.1 °F 80% 30.28 in 10.0 mi Calm Calm - N/A   Clear
8:53 AM 55.9 °F 44.1 °F 64% 30.29 in 10.0 mi Calm Calm - N/A   Partly Cloudy
9:53 AM 59.0 °F 37.9 °F 46% 30.27 in 10.0 mi SSE 6.9 mph - N/A   Clear
10:53 AM 61.0 °F 39.0 °F 44% 30.28 in 10.0 mi South 10.4 mph - N/A   Partly Cloudy
11:53 AM 62.1 °F 39.0 °F 43% 30.28 in 10.0 mi SSE 11.5 mph - N/A   Partly Cloudy
12:53 PM 64.0 °F 39.0 °F 40% 30.25 in 10.0 mi SSE 12.7 mph - N/A   Clear
1:53 PM 66.0 °F 41.0 °F 40% 30.25 in 10.0 mi SSE 8.1 mph - N/A   Clear
2:53 PM 66.9 °F 43.0 °F 42% 30.24 in 10.0 mi SSE 10.4 mph - N/A   Clear
3:53 PM 69.1 °F 44.1 °F 40% 30.22 in 10.0 mi SSE 12.7 mph - N/A   Clear
4:53 PM 68.0 °F 45.0 °F 43% 30.20 in 10.0 mi South 11.5 mph - N/A   Clear
5:53 PM 66.9 °F 46.0 °F 47% 30.19 in 10.0 mi South 11.5 mph - N/A   Mostly Cloudy
6:53 PM 64.9 °F 46.0 °F 50% 30.20 in 10.0 mi SSE 10.4 mph - N/A   Clear
7:53 PM 64.0 °F 46.0 °F 52% 30.21 in 10.0 mi SSE 8.1 mph - N/A   Partly Cloudy
8:53 PM 62.1 °F 46.9 °F 58% 30.20 in 10.0 mi South 5.8 mph - N/A   Clear
9:53 PM 62.1 °F 48.0 °F 60% 30.19 in 10.0 mi SSW 5.8 mph - N/A   Clear
10:53 PM 61.0 °F 48.9 °F 64% 30.21 in 10.0 mi Calm Calm - N/A   Partly Cloudy
11:53 PM 62.1 °F 48.9 °F 62% 30.18 in 10.0 mi South 5.8 mph - N/A   Mostly Cloudy